Location: Tel Aviv
(32.0670°N, 34.7670°E)
Time: 01:46:32
(UTC+03:00)

A-11 Canister half - Pass Details

Date: 13 December 2023
Orbit: 1525 x 1683 km, 47.3° (Epoch: 18 June)

Event Time Altitude Azimuth Distance (km) Brightness Sun altitude
Rises 17:08:51 0° 256° (WSW) 4,896 13.9 -6.9°
Reaches altitude 10° 17:12:10 10° 262° (W) 3,923 12.7 -7.5°
Maximum altitude 17:21:52 49° 335° (NNW) 2,078 9.7 -9.4°
Enters shadow 17:31:34 10° 48° (NE) 3,918 10.5 -11.4°
